Temp_Advection
nan nan nan nan nan nan nan nan nan nan nan nan nan nan nan nan nan nan nan nan nan nan nan nan nan nan nan nan nan nan nan nan nan nan nan nan nan nan nan nan nan nan nan nan
nan -0 -0 -0 -0 -0 0 0 -0 -0 -0 0 -0 -1 -0 -0 -1 -1 -1 -1 -1 1 3 1 1 -0 0 1 -0 -1 -1 0 -0 1 0 0 0 -0 0 0 -0 0 0 nan
nan -0 -0 0 0 -0 0 -0 -0 -0 -0 0 -0 -1 -1 -0 -1 -1 -1 -0 -1 0 0 -0 -2 -2 0 0 -1 -0 -0 1 -0 1 0 -0 0 0 1 -0 -0 0 0 nan
nan -0 0 -0 -0 -0 -0 -1 -0 0 0 0 0 -0 -0 -0 -0 -0 -1 -0 -0 -0 -1 -1 -1 0 1 -0 -0 1 2 1 1 -0 -0 -1 -0 0 -0 -0 0 0 0 nan
nan -0 -0 -0 -1 -0 -1 -0 0 0 0 0 -0 -0 -0 -0 -0 -0 -0 -2 -1 -1 1 2 0 -0 0 0 1 1 3 2 0 -0 -1 -0 0 -0 -0 0 1 1 0 nan
nan 0 0 -1 -1 -0 0 -0 -0 0 0 -0 -1 -0 -1 -0 -0 -0 -1 -1 -0 1 1 0 -0 2 2 1 2 4 4 0 0 0 -1 0 -0 -0 -0 -0 0 0 0 nan
nan -0 -0 -0 -0 -0 1 0 0 -0 -0 -0 -0 -0 -1 -0 -0 -0 -1 -1 -1 1 1 1 2 1 -0 3 2 1 -1 -2 1 1 0 0 -0 -0 -0 -0 -0 -0 -0 nan
nan -1 0 -0 -0 -0 1 0 -0 -0 -0 -0 0 -0 -1 0 -0 -1 -1 -1 -2 -1 1 1 0 -0 -0 2 -0 -1 -2 2 2 0 -0 -0 0 0 0 0 -0 -1 -0 nan
nan -1 -0 0 -1 -0 0 -0 -0 0 0 -0 0 -0 -0 -1 -0 -0 -0 -1 -2 -3 -0 1 2 1 1 -0 -1 -0 1 2 1 0 -1 -0 0 0 0 0 0 -0 0 nan
nan -0 -0 0 -0 0 0 -0 0 -0 -0 -0 -0 0 -0 -1 -0 -0 -0 -0 -2 -2 0 1 2 -0 -1 -2 -0 1 1 0 1 -1 -1 -1 0 0 1 0 0 0 0 nan
nan -0 -1 -0 0 0 0 0 -0 0 0 -0 0 -0 -0 -0 -0 -0 -1 -1 -2 -2 -1 1 0 -0 -0 1 2 1 0 1 1 -1 -1 -0 -0 1 0 0 0 0 0 nan
nan -0 -0 -0 -1 0 -0 -0 -0 -0 0 0 0 0 -0 -0 -1 -1 -1 -2 -3 -2 -0 -0 0 1 1 1 0 -0 1 2 -0 0 -1 -0 0 0 0 0 0 0 0 nan
nan -0 -0 -0 -0 -0 -0 -0 0 -0 -0 -0 -0 -0 -0 -1 -1 -1 -1 -2 -3 -1 0 0 1 0 -0 0 -0 0 1 -0 0 1 -1 0 -0 0 0 0 0 0 0 nan
nan -0 -0 -0 -0 -0 -0 -0 -1 -0 -0 -0 -0 -0 -1 -1 -1 -1 -1 -1 -2 -2 1 0 -0 -1 -0 1 1 1 -0 -0 1 -1 -0 -0 0 0 1 0 0 0 -0 nan
nan -0 -0 0 0 -1 -0 -0 -1 -1 -1 -0 -0 -1 -1 -1 -1 -1 -1 -1 -1 -2 -1 1 0 0 0 0 0 1 0 1 0 -0 1 0 -0 1 1 0 0 -0 -0 nan
nan 0 0 0 0 -0 -1 -0 -0 -1 -1 -0 -0 -1 -0 -0 -0 -1 -1 -1 -2 -2 -2 -0 1 0 0 0 1 -1 -1 1 0 1 1 -0 -0 1 0 -0 0 0 0 nan
nan -0 -0 -0 -0 -0 -2 -1 -0 -0 -0 -0 -1 -0 -1 -0 -0 -0 -1 -1 -1 -1 -1 0 1 0 0 0 -1 -2 0 1 1 1 -0 -1 0 0 -0 0 0 -0 -0 nan
nan -0 -0 -0 -0 -1 -0 -0 -0 -0 -0 -0 -0 -0 -0 -1 -0 -0 -0 -1 -1 -0 1 1 0 0 -0 -0 -1 0 1 1 1 -0 -0 -0 0 -0 -1 1 0 -0 -0 nan
nan -0 -0 0 0 0 -0 0 -0 0 0 -0 -0 -0 -1 -1 -0 -1 -1 -0 0 1 1 0 -0 0 0 -0 -0 1 1 0 0 -0 0 -0 -0 -1 1 1 0 0 0 nan
nan -1 -0 0 -0 0 -0 -0 1 -0 -0 -0 -1 -1 -0 -0 -0 -0 -1 -0 1 1 0 0 1 0 -0 -0 0 1 0 0 -0 -0 -1 -1 -0 -0 0 0 1 0 0 nan
nan -0 0 -0 -0 -0 -0 -1 -0 -1 -0 0 -0 -0 -0 -0 -0 -1 -1 -0 -0 -0 0 1 2 1 -1 0 -0 0 0 1 -1 -0 -0 -0 -0 -1 -1 1 1 1 1 nan
nan -0 0 -0 0 -0 -0 -0 -1 -0 -0 0 0 0 -0 -0 -0 -1 -1 -0 -0 0 1 1 1 0 -0 1 -0 -1 -0 0 -0 0 0 0 1 -0 1 2 1 1 1 nan
nan 0 -0 -0 -0 -0 0 0 0 0 0 -0 -0 -0 -0 -0 -0 -0 -0 1 0 1 1 0 1 1 2 2 0 -0 1 0 0 1 1 1 1 1 2 2 1 0 1 nan
nan -0 -0 0 0 0 1 1 0 -0 0 0 -0 -0 -0 0 -0 -0 0 1 1 2 1 1 1 -1 2 1 0 1 1 0 0 1 0 1 1 1 1 1 -0 0 -0 nan
nan -0 -0 -0 0 0 0 0 0 0 0 -0 -0 0 -0 0 -0 -0 1 0 1 0 -0 1 -1 -0 1 1 1 0 -1 -1 -0 0 0 1 0 1 1 0 -0 -1 -0 nan
nan nan nan nan nan nan nan nan nan nan nan nan nan nan nan nan nan nan nan nan nan nan nan nan nan nan nan nan nan nan nan nan nan nan nan nan nan nan nan nan nan nan nan nan
Wind_Speed
5 5 8 10 8 7 3 5 8 2 6 5 6 13 11 13 23 19 28 24 22 34 37 47 46 46 42 42 43 40 39 41 42 44 46 45 45 40 35 32 28 25 25 26
5 10 5 8 11 12 9 15 19 7 8 8 12 19 16 10 15 23 26 28 24 29 33 42 46 48 43 41 43 28 43 41 44 48 48 46 43 39 33 33 28 27 28 28
6 5 11 8 9 13 16 18 13 12 7 9 8 16 13 9 14 23 26 26 26 33 40 42 49 49 46 49 42 40 44 49 48 49 48 45 44 38 39 36 32 31 30 28
11 7 2 6 8 13 19 14 16 15 8 6 6 7 6 5 9 9 20 23 29 35 39 45 50 53 54 49 42 37 46 53 53 50 52 50 50 48 45 39 35 32 30 30
9 11 14 16 14 9 15 13 15 12 11 6 9 6 3 7 8 10 7 19 26 34 40 44 49 55 56 45 46 51 41 45 57 54 52 50 51 48 44 40 35 31 31 29
15 17 9 19 16 16 7 2 4 3 3 7 15 7 12 13 12 7 8 19 22 29 40 44 46 56 60 47 39 44 40 52 61 57 52 52 53 51 46 39 35 34 33 33
20 5 5 19 19 16 12 7 4 4 8 7 10 8 20 5 7 12 14 22 23 25 36 45 47 44 53 48 35 28 38 44 62 60 58 57 52 49 45 41 37 36 35 37
4 9 4 6 14 18 18 13 5 7 8 10 14 7 12 2 12 15 13 11 13 22 33 45 51 52 56 53 53 37 41 37 43 59 63 59 52 47 44 41 37 35 35 36
6 8 15 14 13 19 13 11 13 4 2 5 4 5 1 10 12 17 19 21 19 18 34 46 51 50 55 53 49 51 44 36 44 45 64 58 51 48 45 40 36 35 33 34
4 10 5 12 8 4 9 11 7 5 4 5 4 3 4 12 16 17 16 19 25 23 35 47 51 48 53 52 50 51 41 37 46 59 62 57 53 45 42 37 37 34 33 34
2 4 11 9 2 3 5 5 5 5 4 3 3 3 8 11 14 17 18 23 27 28 27 40 46 52 56 53 49 46 45 36 51 61 60 57 50 45 41 37 35 33 34 35
3 4 5 6 15 6 2 8 4 5 9 5 3 4 11 14 15 20 22 31 38 23 29 41 46 48 51 54 50 48 41 41 45 60 61 56 48 45 40 37 33 33 35 36
5 3 6 4 4 6 6 7 3 1 3 4 4 3 12 17 18 27 26 36 43 14 22 32 40 40 48 51 55 45 43 27 22 48 57 56 50 45 42 37 34 35 35 36
9 3 3 5 7 8 13 26 20 6 3 3 5 8 19 23 19 23 33 38 36 28 8 19 27 35 36 44 47 46 52 31 29 45 56 55 53 48 44 38 35 36 36 36
2 3 1 13 15 29 26 26 23 24 17 7 8 8 17 21 20 24 27 32 30 29 27 7 21 26 29 32 39 45 42 33 32 23 49 60 53 47 45 39 37 36 35 35
2 4 3 3 6 26 26 23 25 21 24 9 9 13 21 26 19 29 34 32 30 26 24 21 16 13 25 28 38 39 42 45 38 30 50 58 54 50 44 41 39 36 35 35
2 2 2 3 9 5 21 21 12 12 14 14 15 15 18 18 14 18 34 32 26 25 25 20 16 9 8 18 31 36 39 38 37 42 50 57 55 50 44 42 40 37 37 35
2 2 3 2 6 9 7 11 8 7 16 19 15 18 21 17 18 14 40 29 24 27 29 24 14 6 2 13 20 26 33 35 40 43 51 55 54 51 45 44 42 39 37 37
13 1 5 4 9 4 14 17 9 6 13 24 20 20 33 36 22 23 36 29 26 28 26 24 17 8 7 7 10 18 38 36 31 43 48 51 55 49 45 46 43 40 39 38
15 18 5 5 7 8 12 20 30 3 10 32 32 25 28 31 14 10 38 38 38 30 25 27 22 14 1 6 12 17 20 27 31 32 49 41 44 46 45 40 43 42 41 39
7 5 12 7 6 6 16 28 15 11 8 28 29 29 24 14 17 26 33 39 42 39 31 27 30 31 25 9 10 15 21 27 34 33 34 37 43 42 42 40 42 44 43 39
8 3 5 5 5 8 29 12 11 6 16 19 27 28 24 25 35 39 43 45 44 45 44 37 37 36 38 31 18 14 4 11 29 45 43 45 43 41 47 45 41 43 40 37
9 6 7 7 5 5 12 11 17 19 19 22 24 25 26 27 34 40 42 50 49 48 47 44 42 40 39 39 37 26 24 5 23 29 33 46 47 43 39 43 43 36 35 37
8 17 4 3 7 7 16 21 23 27 24 25 25 28 28 28 32 34 40 50 50 51 48 48 43 46 44 37 36 36 28 20 13 21 27 31 33 41 39 33 33 32 35 36
5 6 4 7 12 10 19 22 23 26 31 34 32 33 33 34 33 34 38 46 46 45 47 48 44 46 43 39 33 31 31 31 27 20 6 14 30 37 35 31 28 28 28 34
7 1 3 1 5 2 9 14 20 25 29 33 36 37 35 36 35 35 40 41 42 42 43 45 44 45 46 42 36 35 35 30 26 23 22 21 4 27 26 27 26 26 29 35
Wind_Direction
272 205 210 207 203 196 205 257 256 120 285 318 256 278 281 266 272 268 272 271 244 227 221 217 215 216 217 208 195 198 204 202 196 191 190 186 189 190 188 194 194 196 192 189
327 262 265 211 210 223 220 245 259 276 237 253 275 272 272 250 254 257 263 267 240 234 214 212 205 216 215 212 197 211 202 205 199 196 192 192 191 194 197 195 200 202 194 191
251 264 298 271 259 227 227 231 243 248 253 249 267 279 270 267 247 260 257 262 244 235 223 217 208 214 213 207 206 207 214 210 200 200 196 199 198 202 196 195 198 198 194 195
276 246 259 309 275 237 236 220 239 248 248 237 138 282 255 258 264 241 250 247 238 233 233 229 217 209 209 210 211 215 224 220 206 207 205 208 206 196 193 194 196 198 203 202
248 276 269 272 261 271 252 236 237 246 246 246 258 261 291 203 251 254 256 253 245 239 234 229 221 209 205 204 218 221 217 222 212 205 214 204 199 198 195 194 197 199 200 201
269 280 244 237 226 244 218 335 318 253 198 231 245 199 271 248 245 262 249 256 263 248 235 232 229 212 212 215 218 220 207 204 204 206 208 202 200 198 195 194 199 199 201 202
310 245 272 222 228 212 202 162 220 223 227 243 220 207 246 270 236 240 257 259 262 261 237 228 218 209 210 208 199 206 203 190 206 210 206 207 208 206 201 202 201 201 202 204
299 317 16 339 239 203 177 184 182 211 216 226 208 200 234 220 352 358 334 309 304 269 239 225 222 211 211 210 210 202 196 244 212 215 207 208 210 208 209 208 206 208 209 210
305 284 309 293 282 211 187 195 215 327 233 286 192 193 29 12 352 343 330 328 310 281 237 222 219 208 211 209 209 200 209 215 212 221 207 207 208 208 212 212 213 211 213 214
291 296 297 310 245 185 172 175 168 197 217 235 185 175 50 0 337 332 319 323 316 306 234 215 210 202 209 214 207 209 207 204 210 215 207 206 206 210 215 216 214 212 212 212
295 263 298 309 12 135 155 178 210 134 147 283 147 91 9 354 336 322 320 322 318 297 238 206 200 204 208 204 198 202 199 216 208 217 205 206 207 209 213 211 210 210 209 207
238 280 291 293 301 291 234 191 204 135 162 239 146 143 23 5 341 339 332 343 336 293 228 201 206 201 195 198 197 197 203 201 199 200 206 207 205 207 207 207 208 207 205 206
359 320 315 346 25 26 35 0 159 96 41 7 91 319 6 356 346 343 351 354 350 346 212 193 199 198 195 202 200 200 195 197 218 217 213 206 205 205 204 207 207 204 204 205
353 303 320 33 38 59 52 39 32 64 38 83 29 341 6 344 344 347 358 356 353 15 188 187 193 200 195 196 201 198 196 189 204 202 208 209 208 204 204 204 206 204 203 204
292 271 210 60 67 65 56 44 41 47 15 51 347 14 4 340 345 351 352 353 360 6 30 133 191 201 203 198 197 203 203 197 188 198 210 211 209 205 203 203 205 203 204 203
294 357 115 118 79 59 51 32 38 33 21 19 360 14 343 332 337 2 355 351 355 358 8 34 59 192 204 203 203 200 203 203 204 214 209 209 204 203 205 202 204 204 203 204
293 293 285 8 339 307 36 8 25 28 28 13 21 333 332 337 331 4 356 349 345 355 1 20 37 58 187 211 209 215 208 215 224 215 211 212 201 204 205 201 205 207 205 206
277 313 25 336 331 50 319 2 340 10 18 7 356 352 354 345 348 353 353 340 341 6 16 25 31 52 11 209 215 221 212 209 212 217 214 207 203 206 204 204 207 208 209 210
18 63 57 85 58 120 7 350 339 338 24 1 356 358 6 6 2 12 344 350 6 19 23 26 21 26 2 234 206 233 211 205 210 210 207 209 204 206 211 206 211 211 211 212
14 40 76 34 73 38 333 339 327 267 10 355 355 1 10 3 15 332 347 10 27 31 37 36 39 26 358 293 257 235 224 218 211 213 213 210 212 213 211 215 216 215 215 216
354 358 41 33 75 82 349 344 359 44 335 328 354 359 360 15 354 334 5 23 34 37 36 44 50 53 51 55 231 239 241 214 226 213 192 212 214 214 211 224 223 218 216 217
22 25 13 17 58 34 354 11 46 351 351 1 5 9 2 6 13 14 22 28 31 36 40 47 52 53 49 49 55 46 39 185 208 218 213 213 219 216 211 219 222 218 219 221
30 19 47 37 57 48 31 44 34 26 20 18 17 16 15 16 20 22 24 31 30 34 40 41 44 47 47 43 44 43 37 24 200 213 210 219 216 216 221 220 218 217 219 221
23 33 51 105 21 31 31 42 46 42 35 29 29 29 29 23 24 22 26 37 33 34 35 39 38 41 43 45 42 41 45 52 98 188 210 223 211 193 213 218 214 220 221 220
8 360 27 67 30 39 47 47 40 37 39 42 45 42 40 36 33 28 29 36 36 38 36 38 40 39 42 44 45 39 37 49 58 64 92 206 221 212 212 211 218 229 246 243
1 353 70 186 345 45 23 40 41 39 35 33 34 41 46 43 39 37 35 36 36 36 36 38 39 39 42 43 44 45 47 46 45 46 44 33 136 207 210 218 225 245 245 245
Height
1475 1478 1479 1481 1480 1480 1483 1485 1487 1486 1481 1483 1479 1474 1471 1469 1464 1464 1463 1464 1466 1467 1469 1471 1475 1479 1485 1490 1491 1506 1513 1519 1523 1525 1527 1531 1535 1540 1544 1550 1553 1557 1560 1563
1480 1475 1473 1472 1474 1476 1479 1479 1475 1481 1481 1483 1480 1469 1464 1462 1459 1459 1459 1458 1461 1463 1464 1467 1472 1477 1484 1488 1492 1495 1511 1517 1521 1523 1526 1531 1534 1538 1541 1545 1550 1554 1557 1561
1482 1473 1473 1472 1473 1472 1472 1473 1476 1479 1478 1476 1475 1466 1461 1454 1451 1452 1450 1451 1454 1454 1456 1459 1464 1469 1477 1481 1484 1488 1499 1511 1518 1521 1525 1530 1533 1536 1537 1540 1545 1551 1554 1559
1474 1467 1467 1469 1467 1465 1465 1464 1468 1470 1475 1482 1469 1470 1454 1450 1447 1445 1443 1443 1444 1447 1449 1452 1454 1460 1466 1472 1479 1483 1492 1501 1512 1515 1520 1522 1526 1526 1530 1536 1541 1548 1552 1556
1468 1466 1467 1466 1463 1462 1455 1459 1461 1464 1465 1472 1469 1475 1447 1445 1445 1440 1439 1438 1438 1439 1441 1443 1449 1454 1459 1466 1472 1478 1482 1495 1500 1508 1514 1518 1522 1526 1530 1535 1539 1544 1548 1553
1466 1463 1462 1456 1453 1455 1454 1458 1460 1463 1467 1473 1459 1472 1442 1442 1438 1435 1432 1432 1431 1432 1434 1436 1440 1448 1455 1461 1468 1474 1471 1473 1491 1502 1508 1514 1516 1521 1527 1532 1534 1540 1544 1549
1463 1451 1446 1447 1445 1443 1447 1457 1470 1471 1463 1459 1449 1459 1434 1430 1430 1429 1427 1426 1426 1426 1427 1429 1432 1441 1448 1457 1463 1465 1472 1476 1484 1493 1502 1507 1511 1517 1524 1528 1530 1535 1538 1544
1475 1463 1445 1439 1438 1430 1434 1448 1458 1452 1448 1445 1439 1444 1424 1429 1431 1430 1426 1423 1421 1421 1421 1423 1425 1431 1439 1446 1452 1461 1467 1474 1472 1485 1495 1500 1508 1513 1520 1524 1528 1531 1534 1540
1471 1453 1439 1437 1434 1426 1433 1443 1440 1448 1451 1449 1436 1429 1427 1430 1430 1429 1425 1418 1413 1413 1412 1415 1418 1423 1429 1438 1445 1451 1455 1461 1469 1477 1485 1495 1503 1509 1514 1520 1525 1529 1532 1537
1471 1462 1436 1432 1429 1420 1428 1433 1449 1452 1451 1449 1427 1427 1437 1434 1431 1429 1425 1414 1406 1403 1403 1403 1409 1417 1422 1430 1438 1445 1448 1451 1466 1473 1478 1490 1496 1503 1512 1515 1520 1524 1529 1534
1473 1469 1439 1432 1426 1427 1435 1434 1434 1435 1437 1434 1430 1442 1443 1441 1438 1433 1423 1410 1402 1394 1396 1399 1403 1409 1415 1423 1433 1440 1447 1449 1453 1463 1472 1483 1492 1498 1505 1511 1515 1520 1525 1530
1473 1467 1456 1437 1428 1427 1430 1429 1428 1439 1438 1435 1430 1444 1444 1442 1440 1434 1422 1403 1392 1385 1386 1392 1397 1404 1414 1422 1430 1438 1445 1450 1454 1453 1467 1477 1486 1494 1501 1507 1510 1516 1521 1526
1474 1465 1456 1434 1432 1428 1430 1427 1423 1423 1428 1432 1452 1450 1442 1443 1439 1430 1418 1404 1391 1381 1384 1391 1396 1404 1406 1414 1423 1431 1439 1444 1448 1454 1462 1471 1480 1487 1495 1501 1506 1512 1517 1522
1476 1471 1466 1462 1455 1452 1451 1444 1434 1428 1438 1443 1452 1445 1442 1444 1441 1430 1415 1408 1403 1393 1392 1396 1401 1403 1409 1411 1417 1425 1434 1438 1441 1446 1453 1463 1472 1481 1489 1495 1502 1508 1513 1518
1476 1472 1469 1468 1460 1456 1459 1464 1464 1461 1463 1458 1461 1452 1460 1456 1442 1437 1429 1421 1413 1406 1397 1400 1405 1407 1411 1416 1419 1421 1426 1432 1437 1440 1449 1457 1468 1476 1484 1491 1498 1504 1509 1515
1473 1468 1465 1461 1458 1455 1463 1474 1471 1472 1475 1473 1466 1463 1467 1461 1454 1444 1434 1427 1421 1416 1407 1401 1403 1408 1411 1414 1419 1422 1424 1430 1435 1438 1446 1453 1464 1471 1477 1486 1493 1499 1504 1510
1474 1472 1466 1466 1461 1451 1461 1492 1491 1493 1490 1486 1480 1484 1472 1460 1455 1451 1443 1437 1431 1421 1415 1408 1406 1409 1411 1415 1418 1417 1422 1427 1432 1436 1442 1447 1453 1464 1472 1479 1487 1494 1499 1505
1475 1468 1470 1470 1467 1491 1507 1503 1497 1495 1494 1490 1487 1480 1473 1464 1457 1452 1445 1445 1436 1423 1415 1411 1409 1407 1410 1413 1416 1419 1422 1424 1427 1434 1437 1439 1450 1459 1466 1473 1482 1488 1494 1499
1474 1472 1488 1495 1492 1503 1499 1502 1501 1499 1499 1495 1489 1481 1473 1463 1456 1454 1451 1445 1435 1427 1421 1416 1414 1410 1411 1412 1414 1419 1409 1422 1426 1429 1431 1438 1446 1454 1461 1469 1476 1482 1487 1493
1482 1476 1489 1496 1512 1520 1522 1509 1500 1497 1496 1501 1494 1487 1481 1472 1466 1467 1456 1442 1431 1427 1425 1422 1418 1413 1409 1411 1414 1417 1417 1418 1421 1424 1429 1434 1443 1451 1458 1464 1471 1478 1483 1488
1501 1502 1505 1504 1512 1525 1526 1514 1501 1505 1525 1513 1505 1497 1490 1487 1488 1478 1463 1448 1437 1433 1433 1424 1422 1415 1412 1416 1415 1413 1412 1414 1417 1422 1428 1432 1439 1446 1453 1460 1466 1472 1477 1483
1519 1528 1520 1520 1520 1533 1533 1524 1521 1538 1531 1522 1513 1506 1501 1494 1481 1472 1461 1452 1447 1438 1433 1429 1424 1422 1418 1416 1414 1414 1411 1409 1413 1417 1423 1428 1435 1442 1449 1455 1460 1468 1473 1478
1531 1534 1532 1531 1542 1548 1544 1540 1538 1535 1530 1526 1520 1513 1503 1496 1488 1478 1469 1458 1453 1446 1440 1437 1431 1428 1422 1418 1415 1413 1411 1405 1406 1413 1419 1422 1427 1434 1443 1450 1455 1461 1466 1472
1544 1541 1542 1545 1551 1548 1544 1541 1539 1536 1532 1528 1523 1515 1507 1502 1493 1488 1478 1466 1461 1455 1448 1442 1437 1431 1428 1425 1422 1419 1410 1410 1409 1413 1416 1422 1417 1426 1437 1445 1451 1456 1461 1465
1551 1547 1548 1549 1549 1549 1546 1544 1542 1538 1534 1530 1525 1521 1514 1507 1501 1495 1487 1478 1474 1471 1465 1457 1450 1442 1439 1435 1430 1425 1423 1421 1418 1415 1420 1423 1422 1425 1432 1440 1447 1451 1455 1459
1558 1558 1560 1564 1555 1554 1551 1548 1546 1541 1535 1531 1527 1524 1521 1515 1508 1503 1497 1493 1488 1480 1474 1468 1465 1459 1450 1444 1440 1435 1431 1428 1424 1424 1425 1428 1427 1428 1433 1439 1446 1448 1451 1454